Flag for Japan Weather past 2 weeks in Yokosuka, Japan

Now
66 °F

Broken clouds.


Feels Like: 66 °F
Forecast: 55 / 65 °F
Wind: 5 mph from East

Location: Tokyo International Airport

Current Time: Apr 22, 2015 at 1:47:53 PM

Latest Report: Apr 22, 2015 at 1:00 PM


Visibility: N/A

Pressure: 30.07 "Hg

Humidity: 60%

Dew point: 52 °F

Location of YokosukaLocation

Historic Weather in Yokosuka — Graph

°F

Yokosuka temperature yesterday

Maximum temperature yesterday: 66 °F (at 12:00 AM)
Minimum temperature yesterday: 57 °F (at 11:30 PM)
Average temperature yesterday: 63 °F

Past Weeks' High & Low Weather Summary

 TemperatureHumidityPressure
High72 °F (Apr 17, 10:30 AM)100% (Apr 11, 7:30 AM)30.45 "Hg (Apr 11, 7:30 AM)
Low37 °F (Apr 8, 8:30 AM)42% (Apr 18, 11:00 AM)29.47 "Hg (Apr 15, 4:30 PM)
Average55 °F77%30.01 "Hg
* Reported Apr 7 12:00 Noon — Apr 22 12:30 PM, Yokosuka, Weather by CustomWeather, © 2015

Note: Actual official high and low records may vary slightly from our data, if they occured in-between our weather recording intervals... More about our weather records

Advertising

Yokosuka weather history for previous 24 hours

 ConditionsComfort  
Time TempWeatherWind HumidityBarometerVisibility
12:30 PM
Wed, Apr 22
66 °FPartly sunny.5 mph60%30.07 "HgN/A
12:00 PM64 °FPartly sunny.6 mph60%30.07 "HgN/A
11:30 AM64 °FBroken clouds.5 mph60%30.07 "HgN/A
11:00 AM63 °FScattered clouds.6 mph59%30.09 "HgN/A
10:30 AM63 °FScattered clouds.7 mph56%30.09 "HgN/A
10:00 AM63 °FScattered clouds.8 mph52%30.09 "HgN/A
9:30 AM63 °FPassing clouds.8 mph56%30.12 "HgN/A
9:00 AM61 °FScattered clouds.8 mph55%30.09 "HgN/A
8:30 AM59 °FPartly sunny.7 mph63%30.12 "HgN/A
8:00 AM59 °FScattered clouds.7 mph63%30.12 "HgN/A
7:30 AM59 °FScattered clouds.6 mph63%30.12 "HgN/A
7:00 AM57 °FScattered clouds.6 mph67%30.12 "HgN/A
6:30 AM57 °FScattered clouds.5 mph67%30.12 "HgN/A
6:00 AM55 °FScattered clouds.7 mph72%30.12 "HgN/A
5:30 AM55 °FPassing clouds.8 mph72%30.09 "HgN/A
5:00 AM55 °FScattered clouds.8 mph67%30.09 "HgN/A
4:30 AM55 °FPassing clouds.7 mph67%30.09 "HgN/A
4:00 AM55 °FPassing clouds.7 mph67%30.07 "HgN/A
3:30 AM55 °FPassing clouds.7 mph67%30.07 "HgN/A
3:00 AM55 °FPassing clouds.8 mph67%30.04 "HgN/A
2:30 AM57 °FPassing clouds.8 mph63%30.07 "HgN/A
2:00 AM57 °FPassing clouds.8 mph67%30.07 "HgN/A
1:30 AM57 °FPassing clouds.9 mph67%30.04 "HgN/A
1:00 AM57 °FPassing clouds.9 mph67%30.04 "HgN/A
12:30 AM57 °FPassing clouds.3 mph72%30.04 "HgN/A
12:00 AM57 °FPassing clouds.7 mph72%30.04 "HgN/A
11:30 PM
Tue, Apr 21
57 °FPassing clouds.8 mph72%30.01 "HgN/A
11:00 PM59 °FPassing clouds.8 mph68%30.04 "HgN/A
10:30 PM59 °FPassing clouds.8 mph68%30.04 "HgN/A
10:00 PM59 °FPartly cloudy.8 mph72%30.04 "HgN/A
9:30 PM59 °FPassing clouds.8 mph77%30.01 "HgN/A
9:00 PM59 °FPartly cloudy.9 mph77%30.01 "HgN/A
8:30 PM59 °FPassing clouds.10 mph77%29.98 "HgN/A
8:00 PM59 °FPartly cloudy.14 mph77%29.98 "HgN/A
7:30 PM59 °FPartly cloudy.15 mph77%29.95 "HgN/A
7:00 PM61 °FPassing clouds.10 mph77%29.92 "HgN/A
6:30 PM61 °FPassing clouds.17 mph68%29.89 "HgN/A
6:00 PM61 °FPartly sunny.17 mph72%29.86 "HgN/A
5:30 PM61 °FPartly sunny.20 mph72%29.86 "HgN/A
5:00 PM61 °FBroken clouds.18 mph77%29.83 "HgN/A
4:30 PM61 °FScattered clouds.18 mph77%29.83 "HgN/A
4:00 PM61 °FScattered clouds.18 mph77%29.80 "HgN/A
3:30 PM63 °FPartly sunny.15 mph77%29.77 "HgN/A
3:00 PM63 °FPartly sunny.17 mph77%29.77 "HgN/A
2:30 PM63 °FBroken clouds.16 mph77%29.74 "HgN/A
2:00 PM61 °FPartly sunny.16 mph88%29.74 "HgN/A
1:30 PM61 °FPartly sunny.18 mph88%29.74 "HgN/A
1:00 PM63 °FPartly sunny.14 mph88%29.71 "HgN/A
Weather by CustomWeather, © 2015

See weather overviewHow to use our weather pages